CW5306 Weather Reports


Display with metric or nautical units.
time (UTC)temp
F
wind
direction
speed
MPH
gust
MPH
rain 1hr
in
rain 24hr
in
rain mn
in
humidity
%
barometer
mb
20260510082133 74 58 8.0 19.0 0.00 0.19 0.19 90 1018.5
20260510081902 73 49 8.0 21.0 0.00 0.19 0.19 89 1018.5
20260510081132 73 52 9.0 21.0 0.00 0.19 0.19 90 1018.6
20260510080902 73 122 7.0 19.0 0.00 0.19 0.19 91 1018.6
20260510080131 73 79 10.0 19.0 0.00 0.19 0.19 90 1018.6
20260510075632 73 128 13.0 19.0 0.00 0.19 0.19 90 1018.3
20260510075131 73 65 14.0 21.0 0.00 0.19 0.19 89 1018.2
20260510074631 73 71 11.0 21.0 0.00 0.19 0.19 89 1018.2
20260510074131 73 59 5.0 24.0 0.00 0.19 0.19 89 1018.3
20260510073631 74 94 8.0 24.0 0.00 0.19 0.19 89 1018.4
20260510073130 74 121 14.0 20.0 0.00 0.19 0.19 89 1018.2
20260510072630 73 111 6.0 19.0 0.00 0.19 0.19 88 1018.2
20260510072129 73 79 12.0 23.0 0.00 0.19 0.19 88 1018.1
20260510071630 73 94 8.0 23.0 0.00 0.19 0.19 89 1018.1
20260510071401 73 143 12.0 21.0 0.00 0.19 0.19 90 1018.0
20260510070629 73 83 9.0 20.0 0.00 0.19 0.19 90 1017.9
20260510070133 73 84 6.0 16.0 0.00 0.19 0.19 91 1017.7
20260510065630 73 111 6.0 20.0 0.12 0.19 0.19 91 1017.7
20260510065130 73 120 8.0 20.0 0.18 0.19 0.19 91 1017.7
20260510064901 73 117 13.0 19.0 0.18 0.19 0.19 91 1017.6
20260510064118 73 113 0.0 21.0 0.18 0.19 0.19 92 1017.7
20260510063849 73 82 6.0 21.0 0.18 0.19 0.19 92 1017.6
20260510063117 73 40 6.0 24.0 0.18 0.19 0.19 92 1017.3
20260510062848 73 72 11.0 24.0 0.18 0.19 0.19 92 1017.3
20260510062116 73 84 8.0 19.0 0.18 0.19 0.19 92 1017.1
20260510061617 73 102 13.0 19.0 0.18 0.19 0.19 92 1017.2
20260510061117 73 88 12.0 19.0 0.18 0.19 0.19 92 1017.0
20260510060618 73 99 9.0 17.0 0.18 0.19 0.19 92 1016.9
20260510060116 73 133 6.0 17.0 0.18 0.19 0.19 92 1016.9
20260510055617 73 143 10.0 13.0 0.06 0.07 0.09 91 1017.1
20260510055117 73 115 0.0 9.0 0.00 0.01 0.01 91 1017.2
20260510054616 73 139 0.0 9.0 0.00 0.01 0.01 92 1016.8
20260510054116 73 139 0.0 9.0 0.00 0.01 0.01 92 1016.8
20260510053616 72 138 0.0 9.0 0.00 0.01 0.01 92 1016.9
20260510053117 72 105 0.0 9.0 0.00 0.01 0.01 92 1016.6
20260510052616 72 154 0.0 0.0 0.00 0.01 0.01 92 1016.6
20260510052116 72 173 0.0 0.0 0.00 0.01 0.01 92 1016.6
20260510051616 72 155 0.0 0.0 0.00 0.01 0.01 92 1016.3
20260510051118 72 157 0.0 0.0 0.00 0.01 0.01 92 1016.6
20260510050616 72 157 0.0 0.0 0.00 0.01 0.01 91 1016.3
20260510050116 73 157 0.0 0.0 0.00 0.01 0.01 91 1016.2
20260510045615 73 266 0.0 0.0 0.00 0.01 0.01 91 1016.3
20260510045104 73 266 0.0 0.0 0.00 0.01 0.01 90 1016.4
20260510044604 73 268 0.0 0.0 0.00 0.01 0.01 90 1016.0
20260510044104 73 268 0.0 0.0 0.01 0.01 0.01 90 1016.2
20260510043539 73 268 0.0 0.0 0.01 0.01 0.01 90 1016.0
20260510043311 73 331 0.0 0.0 0.01 0.01 0.01 90 1015.9
20260510042540 73 338 0.0 0.0 0.01 0.01 0.01 90 1015.9
20260510042027 73 289 0.0 0.0 0.01 0.01 0.01 90 1016.1
20260510041527 73 353 0.0 0.0 0.01 0.01 0.01 90 1016.0
20260510041257 73 310 0.0 0.0 0.01 0.01 0.01 90 1015.9
20260510040528 73 304 0.0 10.0 0.01 0.01 0.01 91 1016.0
20260510040026 73 327 0.0 11.0 0.01 0.01 0.01 91 1015.7
20260510035526 73 28 0.0 11.0 0.01 0.01 0.01 90 1015.9
20260510035026 73 304 0.0 9.0 0.01 0.01 0.01 90 1015.9
20260510034527 73 347 0.0 15.0 0.01 0.01 0.01 90 1015.9
20260510034027 73 80 1.0 15.0 0.00 0.00 0.00 90 1016.0
20260510033526 73 52 11.0 17.0 0.00 0.00 0.00 89 1015.7
20260510033026 74 0 6.0 17.0 0.00 0.00 0.00 89 1015.7
20260510032520 74 329 13.0 17.0 0.00 0.00 0.00 88 1015.9
20260510032014 74 49 9.0 17.0 0.00 0.00 0.00 87 1015.9
20260510031520 74 28 8.0 16.0 0.00 0.00 0.00 86 1016.0
20260510031514 74 22 10.0 16.0 0.00 0.00 0.00 87 1015.9
20260510030513 74 76 5.0 20.0 0.00 0.00 0.00 86 1015.8
20260510030244 74 17 12.0 20.0 0.00 0.00 0.00 85 1015.8
20260510025745 74 44 10.0 20.0 0.00 0.00 0.00 83 1015.9
20260510025007 75 32 9.0 20.0 0.00 0.00 0.00 83 1015.8
20260510024501 75 19 8.0 19.0 0.00 0.00 0.00 83 1015.9
20260510024003 75 110 10.0 24.0 0.00 0.00 0.00 83 1016.0
20260510023502 75 46 15.0 24.0 0.00 0.00 0.00 83 1015.7
20260510023232 75 75 10.0 21.0 0.00 0.00 0.00 83 1015.8
20260510022502 75 55 8.0 23.0 0.00 0.00 0.00 82 1016.0
20260510022002 76 79 14.0 23.0 0.00 0.00 0.00 81 1016.0
20260510021508 76 33 11.0 29.0 0.00 0.00 0.00 80 1016.3
20260510021501 76 25 9.0 29.0 0.00 0.00 0.00 81 1016.0
20260510020459 76 46 15.0 20.0 0.00 0.00 0.00 82 1016.0
20260510020001 76 46 8.0 20.0 0.00 0.00 0.00 82 1016.1
20260510015452 76 29 11.0 19.0 0.00 0.00 0.00 81 1016.2
20260510014946 76 71 12.0 17.0 0.00 0.00 0.00 81 1015.9
20260510014446 75 40 12.0 19.0 0.00 0.00 0.00 80 1016.1
20260510013934 76 76 10.0 19.0 0.00 0.00 0.00 82 1016.4
20260510013439 76 60 11.0 20.0 0.00 0.00 0.00 82 1016.2
20260510013434 76 55 6.0 20.0 0.00 0.00 0.00 82 1016.2
20260510012434 76 83 9.0 24.0 0.00 0.00 0.00 82 1016.2
20260510011936 76 61 8.0 24.0 0.00 0.00 0.00 83 1016.1
20260510011705 76 73 14.0 20.0 0.00 0.00 0.00 82 1015.8
20260510010934 76 75 7.0 25.0 0.00 0.00 0.00 82 1016.0
20260510010434 76 62 8.0 25.0 0.00 0.00 0.00 83 1016.4
20260510005934 77 104 5.0 21.0 0.00 0.00 0.00 82 1016.3
20260510005432 77 63 12.0 21.0 0.00 0.00 0.00 81 1016.6
20260510004932 77 68 11.0 19.0 0.00 0.00 0.00 81 1016.5
20260510004431 77 40 10.0 19.0 0.00 0.00 0.00 82 1016.4
20260510004209 77 34 8.0 16.0 0.00 0.00 0.00 81 1016.4
20260510003932 77 76 10.0 19.0 0.00 0.00 0.00 82 1016.2
20260510002932 76 47 10.0 23.0 0.00 0.00 0.00 82 1016.2
20260510002424 76 34 10.0 23.0 0.00 0.00 0.00 84 1016.4
20260510001920 76 61 13.0 23.0 0.00 0.00 0.00 82 1016.6
20260510001418 77 87 9.0 20.0 0.00 0.00 0.00 83 1016.6
20260510000918 77 80 11.0 20.0 0.00 0.00 0.00 83 1016.5
20260510000419 76 67 8.0 25.0 0.00 0.00 0.00 83 1016.6
20260509235918 76 92 15.0 25.0 0.00 0.00 0.00 83 1016.5
20260509235419 76 11 8.0 21.0 0.00 0.00 0.00 83 1016.4
20260509234918 76 111 13.0 21.0 0.00 0.00 0.00 82 1016.4
20260509234419 77 30 9.0 19.0 0.00 0.00 0.00 82 1016.6
20260509233924 78 30 9.0 21.0 0.00 0.00 0.00 80 1016.7
20260509233919 78 70 5.0 19.0 0.00 0.00 0.00 80 1017.0
20260509232919 78 85 4.0 21.0 0.00 0.00 0.00 80 1016.9
20260509232419 78 75 11.0 20.0 0.00 0.00 0.00 81 1017.0
20260509231918 78 38 11.0 25.0 0.00 0.00 0.00 81 1017.0
20260509231649 77 61 9.0 25.0 0.00 0.00 0.00 81 1016.9
20260509231151 78 65 12.0 17.0 0.00 0.00 0.00 82 1016.9
20260509230419 77 48 11.0 23.0 0.00 0.00 0.00 81 1017.3
20260509225919 77 106 4.0 23.0 0.00 0.00 0.00 81 1017.1
20260509225419 78 102 4.0 19.0 0.00 0.00 0.00 81 1017.2
20260509224918 78 67 11.0 19.0 0.00 0.00 0.00 81 1017.1
20260509224419 78 94 3.0 19.0 0.00 0.00 0.00 81 1017.2
20260509223919 78 87 6.0 19.0 0.00 0.00 0.00 79 1017.2
20260509223419 79 92 10.0 21.0 0.00 0.00 0.00 79 1017.1
20260509222919 79 102 8.0 21.0 0.00 0.00 0.00 79 1017.5
20260509222419 80 42 10.0 19.0 0.00 0.00 0.00 80 1017.6
20260509221906 79 68 8.0 16.0 0.00 0.00 0.00 80 1017.3
20260509221638 79 59 11.0 16.0 0.00 0.00 0.00 79 1017.4
20260509220907 79 87 10.0 17.0 0.00 0.00 0.00 78 1017.4
20260509220406 80 39 8.0 17.0 0.00 0.00 0.00 77 1017.2
20260509215905 80 37 8.0 16.0 0.00 0.00 0.00 79 1017.5
20260509215405 79 97 9.0 16.0 0.00 0.00 0.00 79 1017.6
20260509215134 79 63 0.0 17.0 0.00 0.00 0.00 79 1017.5
20260509214406 79 51 7.0 17.0 0.00 0.00 0.00 78 1017.6
20260509213904 79 29 9.0 17.0 0.00 0.00 0.00 79 1017.9
20260509213403 78 68 1.0 17.0 0.00 0.00 0.00 80 1017.9
20260509213134 79 50 0.0 15.0 0.00 0.00 0.00 78 1017.9
20260509212403 79 53 5.0 15.0 0.00 0.00 0.00 78 1018.2
20260509212133 80 52 4.0 15.0 0.00 0.00 0.00 76 1018.1
20260509211401 80 62 9.0 15.0 0.00 0.00 0.00 79 1018.2
20260509210902 80 89 8.0 15.0 0.00 0.00 0.00 78 1018.3
20260509210400 79 46 4.0 15.0 0.00 0.00 0.00 79 1018.3
20260509205848 78 82 5.0 15.0 0.00 0.00 0.00 80 1018.5
20260509205348 78 42 10.0 15.0 0.00 0.00 0.00 80 1018.6
20260509204847 78 55 1.0 16.0 0.00 0.00 0.00 81 1018.1
20260509204348 78 77 11.0 16.0 0.00 0.00 0.00 80 1018.2
20260509204119 77 63 8.0 15.0 0.00 0.00 0.00 80 1018.3
20260509203618 78 61 2.0 14.0 0.00 0.00 0.00 80 1018.2
20260509202848 78 53 4.0 14.0 0.00 0.00 0.00 79 1018.3
20260509202347 78 54 9.0 14.0 0.00 0.00 0.00 78 1018.4
20260509201847 78 18 0.0 13.0 0.00 0.00 0.00 79 1018.3
20260509201347 78 51 6.0 13.0 0.00 0.00 0.00 79 1018.4
20260509200847 78 81 5.0 11.0 0.00 0.00 0.00 80 1018.7
20260509200618 78 58 1.0 14.0 0.00 0.00 0.00 80 1018.8
20260509195835 78 30 5.0 14.0 0.00 0.00 0.00 80 1018.6
20260509195334 77 77 8.0 13.0 0.00 0.00 0.00 80 1018.5
20260509194834 77 58 0.0 11.0 0.00 0.00 0.00 79 1018.6
20260509194334 77 51 7.0 13.0 0.00 0.00 0.00 80 1018.7
20260509193833 77 62 3.0 13.0 0.00 0.00 0.00 80 1018.8
20260509193334 76 24 6.0 13.0 0.00 0.00 0.00 82 1018.8
20260509192834 76 36 7.0 16.0 0.00 0.00 0.00 81 1018.6
20260509192321 76 65 0.0 16.0 0.00 0.00 0.00 82 1018.7
20260509191821 76 45 8.0 16.0 0.00 0.00 0.00 81 1018.7
20260509191322 76 41 9.0 16.0 0.00 0.00 0.00 83 1019.0
20260509190821 76 26 7.0 16.0 0.00 0.00 0.00 83 1018.8
20260509190320 76 67 7.0 13.0 0.00 0.00 0.00 82 1018.7
20260509185820 76 41 7.0 13.0 0.00 0.00 0.00 82 1018.6
20260509185320 76 62 6.0 14.0 0.00 0.00 0.00 82 1018.6
20260509184820 75 94 5.0 14.0 0.00 0.00 0.00 84 1018.8
20260509184320 75 54 6.0 14.0 0.00 0.00 0.00 83 1018.7
20260509184057 75 44 10.0 16.0 0.00 0.00 0.00 82 1018.8
20260509183819 75 56 8.0 14.0 0.00 0.00 0.00 83 1019.0
20260509182808 76 45 8.0 16.0 0.00 0.00 0.00 82 1018.9
20260509182538 76 72 2.0 17.0 0.00 0.00 0.00 81 1018.8
20260509181808 76 69 5.0 17.0 0.00 0.00 0.00 81 1018.8
20260509181308 76 36 11.0 14.0 0.00 0.00 0.00 81 1018.4
20260509181041 75 73 7.0 13.0 0.00 0.00 0.00 82 1018.5
20260509180308 76 40 1.0 13.0 0.00 0.00 0.00 82 1018.7
20260509180039 76 65 8.0 14.0 0.00 0.00 0.00 82 1018.8
20260509175308 76 44 6.0 16.0 0.00 0.00 0.00 82 1018.5
20260509174808 76 37 3.0 16.0 0.00 0.00 0.00 82 1018.4
20260509174307 76 84 8.0 13.0 0.00 0.00 0.00 82 1018.4
20260509173807 76 65 3.0 15.0 0.00 0.00 0.00 82 1018.4
20260509173255 76 40 6.0 15.0 0.00 0.00 0.00 82 1018.3
20260509172756 76 350 6.0 13.0 0.00 0.01 0.00 84 1018.3
20260509172256 75 57 10.0 13.0 0.00 0.02 0.00 84 1018.4
20260509171743 74 60 8.0 13.0 0.00 0.02 0.00 84 1018.4
20260509171503 74 32 0.0 10.0 0.00 0.02 0.00 85 1018.3
20260509170732 74 46 6.0 13.0 0.00 0.02 0.00 85 1018.4
20260509170232 74 58 5.0 13.0 0.00 0.02 0.00 86 1018.4
20260509165733 74 66 8.0 13.0 0.00 0.02 0.00 85 1018.4
20260509165232 74 57 9.0 13.0 0.00 0.03 0.00 85 1018.2
20260509164733 74 55 4.0 13.0 0.00 0.03 0.00 85 1018.3
20260509164231 74 53 4.0 13.0 0.00 0.03 0.00 85 1018.2
20260509163731 74 64 0.0 9.0 0.00 0.03 0.00 85 1018.0
20260509163233 74 44 2.0 11.0 0.00 0.04 0.00 85 1018.3
20260509162733 74 79 6.0 11.0 0.00 0.04 0.00 85 1018.1
20260509162231 73 72 5.0 10.0 0.00 0.04 0.00 85 1018.2
20260509161732 73 48 5.0 11.0 0.00 0.05 0.00 86 1018.1
20260509161232 73 65 3.0 13.0 0.00 0.05 0.00 85 1018.0
20260509160951 73 68 7.0 14.0 0.00 0.07 0.00 85 1017.8
20260509160220 73 69 6.0 14.0 0.00 0.09 0.00 86 1017.8
20260509155719 73 112 6.0 13.0 0.00 0.15 0.00 86 1017.8
20260509155220 73 78 0.0 14.0 0.00 0.16 0.00 85 1017.7
20260509154719 73 42 8.0 14.0 0.00 0.19 0.00 84 1017.7
20260509154222 74 52 5.0 15.0 0.00 0.25 0.00 85 1017.4
20260509153720 73 98 2.0 15.0 0.00 0.28 0.00 85 1017.5
20260509153450 73 91 6.0 13.0 0.00 0.35 0.00 85 1017.6
20260509152722 73 34 3.0 11.0 0.00 0.43 0.00 85 1017.3
20260509152220 73 55 0.0 11.0 0.00 0.50 0.00 86 1017.5
20260509151720 73 61 1.0 13.0 0.00 0.50 0.00 87 1017.5
20260509151220 73 42 2.0 11.0 0.00 0.50 0.00 86 1017.4
20260509150720 74 58 3.0 13.0 0.00 0.50 0.00 87 1017.0
20260509150219 74 31 8.0 13.0 0.00 0.50 0.00 87 1017.5
20260509145721 73 71 6.0 9.0 0.00 0.50 0.00 87 1017.1
20260509145219 73 69 0.0 0.0 0.00 0.50 0.00 86 1017.3
20260509144720 73 73 0.0 8.0 0.00 0.50 0.00 86 1017.3
20260509144220 74 81 0.0 8.0 0.00 0.50 0.00 85 1017.4
20260509143719 74 52 0.0 5.0 0.00 0.50 0.00 84 1017.3
20260509143451 74 62 0.0 8.0 0.00 0.50 0.00 84 1017.2
20260509142720 74 54 4.0 9.0 0.00 0.50 0.00 83 1017.3
20260509142220 74 81 0.0 9.0 0.00 0.50 0.00 83 1017.4
20260509141720 74 86 0.0 9.0 0.00 0.50 0.00 85 1017.2
20260509141452 74 88 3.0 9.0 0.00 0.50 0.00 84 1017.0
20260509140720 74 91 8.0 8.0 0.00 0.50 0.00 85 1017.2
20260509140222 73 63 0.0 0.0 0.00 0.50 0.00 85 1016.9
20260509135719 73 113 0.0 0.0 0.00 0.50 0.00 84 1017.0
20260509135222 73 113 0.0 0.0 0.00 0.50 0.00 84 1017.1
20260509134719 73 86 0.0 0.0 0.00 0.50 0.00 84 1017.0
20260509134208 73 84 0.0 0.0 0.00 0.50 0.00 84 1016.9
20260509133708 73 71 0.0 9.0 0.00 0.50 0.00 84 1016.9
20260509133208 73 64 6.0 9.0 0.00 0.50 0.00 84 1017.2
20260509132708 73 90 0.0 0.0 0.00 0.50 0.00 85 1017.2
20260509132207 73 115 0.0 6.0 0.00 0.50 0.00 85 1016.8
20260509131707 73 115 0.0 9.0 0.00 0.50 0.00 85 1017.1
20260509131208 74 97 0.0 9.0 0.00 0.50 0.00 85 1017.1
20260509130655 74 110 4.0 9.0 0.00 0.50 0.00 85 1017.3
20260509130415 74 86 0.0 9.0 0.00 0.50 0.00 85 1017.3
20260509125646 74 78 0.0 8.0 0.00 0.50 0.00 84 1017.2
20260509125416 74 56 0.0 8.0 0.00 0.50 0.00 84 1017.4
20260509124644 74 72 0.0 10.0 0.00 0.50 0.00 84 1017.3
20260509124143 74 72 0.0 14.0 0.00 0.50 0.00 84 1017.5
20260509123914 74 78 4.0 14.0 0.00 0.50 0.00 83 1017.5
20260509123414 74 66 1.0 10.0 0.00 0.50 0.00 84 1017.6
20260509122632 74 39 0.0 11.0 0.00 0.50 0.00 84 1017.8
20260509122131 74 44 0.0 14.0 0.00 0.50 0.00 85 1017.8
20260509121632 74 101 5.0 14.0 0.00 0.50 0.00 85 1017.5
20260509121132 74 87 0.0 16.0 0.00 0.50 0.00 86 1017.6
20260509120631 74 39 9.0 16.0 0.00 0.50 0.00 85 1017.9
20260509120139 74 52 8.0 11.0 0.00 0.50 0.00 84 1018.0
20260509120133 74 55 11.0 14.0 0.00 0.50 0.00 85 1017.9
20260509115131 74 55 1.0 11.0 0.00 0.50 0.00 86 1017.8
20260509114631 74 74 5.0 13.0 0.00 0.50 0.00 84 1018.2
20260509114131 74 93 5.0 13.0 0.00 0.50 0.00 84 1017.8
20260509113632 74 60 5.0 11.0 0.00 0.50 0.00 84 1018.1
20260509113129 74 91 8.0 13.0 0.00 0.50 0.00 84 1018.3
20260509112629 74 53 8.0 14.0 0.00 0.50 0.00 83 1018.2
20260509112131 74 55 0.0 14.0 0.00 0.50 0.00 83 1018.2
20260509111630 74 71 7.0 14.0 0.00 0.50 0.00 84 1018.2
20260509111129 74 61 0.0 13.0 0.00 0.50 0.00 83 1018.4
20260509110629 74 51 5.0 13.0 0.00 0.50 0.00 84 1018.2
20260509110400 75 61 7.0 13.0 0.00 0.50 0.00 84 1018.2
20260509105629 74 44 3.0 13.0 0.00 0.50 0.00 83 1018.3
20260509105129 74 82 2.0 13.0 0.00 0.50 0.00 83 1018.5
20260509104630 74 48 3.0 11.0 0.00 0.50 0.00 84 1018.3
20260509104130 74 89 5.0 10.0 0.00 0.50 0.00 84 1018.5
20260509103629 74 78 0.0 10.0 0.00 0.50 0.00 84 1018.6
20260509103129 75 97 0.0 11.0 0.00 0.50 0.00 84 1018.5
20260509102630 74 62 6.0 13.0 0.00 0.50 0.00 83 1018.5
20260509102129 75 57 8.0 13.0 0.00 0.50 0.00 84 1018.9
20260509101634 75 51 0.0 10.0 0.00 0.50 0.00 84 1018.7
20260509101628 74 71 1.0 13.0 0.00 0.50 0.00 84 1018.8
20260509100628 75 53 6.0 15.0 0.00 0.50 0.00 83 1018.7
20260509100127 75 66 8.0 15.0 0.00 0.50 0.00 83 1018.9
20260509095627 75 48 10.0 13.0 0.00 0.50 0.95 83 1018.9
20260509095127 75 54 8.0 11.0 0.00 0.50 0.95 83 1019.1
20260509094858 75 358 7.0 11.0 0.00 0.50 0.95 83 1019.0
20260509094128 75 48 2.0 11.0 0.00 0.50 0.95 83 1018.9
20260509093627 75 97 0.0 13.0 0.00 0.50 0.95 82 1019.0
20260509093128 75 48 8.0 13.0 0.00 0.50 0.95 82 1019.1
20260509092628 75 68 4.0 13.0 0.00 0.50 0.95 82 1019.2
20260509092128 75 23 6.0 13.0 0.00 0.50 0.95 83 1019.0
20260509091633 75 47 4.0 10.0 0.00 0.50 0.95 83 1019.2
20260509091627 75 45 6.0 11.0 0.00 0.50 0.95 83 1019.1
20260509090634 75 89 6.0 14.0 0.00 0.50 0.95 83 1019.2
20260509090628 75 76 6.0 14.0 0.00 0.50 0.95 83 1019.2
20260509085628 75 89 8.0 14.0 0.00 0.50 0.95 83 1019.3
20260509085358 75 96 3.0 14.0 0.00 0.50 0.95 83 1019.3
20260509084628 75 78 0.0 15.0 0.00 0.50 0.95 83 1019.3
20260509084127 75 89 6.0 15.0 0.00 0.50 0.95 83 1019.4
20260509083858 75 64 0.0 14.0 0.00 0.50 0.95 82 1019.7
20260509083127 75 54 6.0 15.0 0.00 0.50 0.95 82 1019.3
20260509082627 75 81 8.0 15.0 0.00 0.50 0.95 82 1019.3